Time,TemperatureF,DewpointF,PressureIn,WindDirection,WindDirectionDegrees,WindSpeedMPH,WindSpeedGustMPH,Humidity,HourlyPrecipIn,Conditions,Clouds,dailyrainin,SolarRadiationWatts/m^2,SoftwareType,DateUTC
2013-02-19 00:02:00,66.0,59.0,-100.00,East,91,4.0,7.0,77,0.00,,,0.00,0.000000,,2013-02-19 05:02:00,
2013-02-19 00:13:00,66.0,59.0,-100.00,East,91,4.0,7.0,77,0.00,,,0.00,0.000000,,2013-02-19 05:13:00,
2013-02-19 00:22:00,66.0,59.0,-100.00,East,91,4.0,7.0,77,0.00,,,0.00,0.000000,,2013-02-19 05:22:00,
2013-02-19 00:32:00,66.0,59.0,-100.00,East,91,4.0,7.0,77,0.00,,,0.00,0.000000,,2013-02-19 05:32:00,
2013-02-19 01:03:00,66.0,55.0,-100.00,SE,128,4.0,8.0,67,0.00,,,0.00,0.000000,,2013-02-19 06:03:00,
2013-02-19 01:12:00,66.0,55.0,-100.00,SE,128,4.0,8.0,67,0.00,,,0.00,0.000000,,2013-02-19 06:12:00,
2013-02-19 01:22:00,66.0,55.0,-100.00,SE,128,4.0,8.0,67,0.00,,,0.00,0.000000,,2013-02-19 06:22:00,
2013-02-19 01:32:00,66.0,55.0,-100.00,SE,128,4.0,8.0,67,0.00,,,0.00,0.000000,,2013-02-19 06:32:00,
2013-02-19 02:02:00,66.0,56.0,-100.00,SE,137,4.0,7.0,69,0.00,,,0.00,0.000000,,2013-02-19 07:02:00,
2013-02-19 02:12:00,66.0,56.0,-100.00,SE,137,4.0,7.0,69,0.00,,,0.00,0.000000,,2013-02-19 07:12:00,
2013-02-19 02:22:00,66.0,56.0,-100.00,SE,137,4.0,7.0,69,0.00,,,0.00,0.000000,,2013-02-19 07:22:00,
2013-02-19 02:32:00,66.0,56.0,-100.00,SE,137,4.0,7.0,69,0.00,,,0.00,0.000000,,2013-02-19 07:32:00,
2013-02-19 03:02:00,64.0,56.0,-100.00,ESE,122,2.0,6.0,74,0.00,,,0.00,0.000000,,2013-02-19 08:02:00,
2013-02-19 03:11:00,64.0,56.0,-100.00,ESE,122,2.0,6.0,74,0.00,,,0.00,0.000000,,2013-02-19 08:11:00,
2013-02-19 03:22:00,64.0,56.0,-100.00,ESE,122,2.0,6.0,74,0.00,,,0.00,0.000000,,2013-02-19 08:22:00,
2013-02-19 03:32:00,64.0,56.0,-100.00,ESE,122,2.0,6.0,74,0.00,,,0.00,0.000000,,2013-02-19 08:32:00,
2013-02-19 04:02:00,67.0,61.0,-100.00,ENE,75,4.0,8.0,80,0.00,,,0.00,0.000000,,2013-02-19 09:02:00,
2013-02-19 04:11:00,67.0,61.0,-100.00,ENE,75,4.0,8.0,80,0.00,,,0.00,0.000000,,2013-02-19 09:11:00,
2013-02-19 04:22:00,67.0,61.0,-100.00,ENE,75,4.0,8.0,80,0.00,,,0.00,0.000000,,2013-02-19 09:22:00,
2013-02-19 04:32:00,67.0,61.0,-100.00,ENE,75,4.0,8.0,80,0.00,,,0.00,0.000000,,2013-02-19 09:32:00,
2013-02-19 05:02:00,66.0,61.0,-100.00,East,90,5.0,9.0,85,0.00,,,0.00,0.000000,,2013-02-19 10:02:00,
2013-02-19 05:11:00,66.0,61.0,-100.00,East,90,5.0,9.0,85,0.00,,,0.00,0.000000,,2013-02-19 10:11:00,
2013-02-19 05:22:00,66.0,61.0,-100.00,East,90,5.0,9.0,85,0.00,,,0.00,0.000000,,2013-02-19 10:22:00,
2013-02-19 05:32:00,66.0,61.0,-100.00,East,90,5.0,9.0,85,0.00,,,0.00,0.000000,,2013-02-19 10:32:00,
2013-02-19 06:01:00,66.0,62.0,-100.00,ESE,103,3.0,8.0,88,0.00,,,0.00,0.000000,,2013-02-19 11:01:00,
2013-02-19 06:11:00,66.0,62.0,-100.00,ESE,103,3.0,8.0,88,0.00,,,0.00,0.000000,,2013-02-19 11:11:00,
2013-02-19 06:22:00,66.0,62.0,-100.00,ESE,103,3.0,8.0,88,0.00,,,0.00,0.000000,,2013-02-19 11:22:00,
2013-02-19 06:32:00,66.0,62.0,-100.00,ESE,103,3.0,8.0,88,0.00,,,0.00,0.000000,,2013-02-19 11:32:00,
2013-02-19 07:02:00,68.0,62.0,-100.00,ESE,112,4.0,9.0,81,0.00,,,0.00,0.000000,,2013-02-19 12:02:00,
2013-02-19 07:12:00,68.0,62.0,-100.00,ESE,112,4.0,9.0,81,0.00,,,0.00,0.000000,,2013-02-19 12:12:00,
2013-02-19 07:22:00,68.0,62.0,-100.00,ESE,112,4.0,9.0,81,0.00,,,0.00,0.000000,,2013-02-19 12:22:00,
2013-02-19 07:32:00,68.0,62.0,-100.00,ESE,112,4.0,9.0,81,0.00,,,0.00,0.000000,,2013-02-19 12:32:00,
2013-02-19 08:02:00,69.0,63.0,-100.00,ESE,115,4.0,7.0,81,0.00,,,0.00,14.000000,,2013-02-19 13:02:00,
2013-02-19 08:11:00,69.0,63.0,-100.00,ESE,115,4.0,7.0,81,0.00,,,0.00,14.000000,,2013-02-19 13:11:00,
2013-02-19 08:22:00,69.0,63.0,-100.00,ESE,115,4.0,7.0,81,0.00,,,0.00,14.000000,,2013-02-19 13:22:00,
2013-02-19 08:32:00,69.0,63.0,-100.00,ESE,115,4.0,7.0,81,0.00,,,0.00,14.000000,,2013-02-19 13:32:00,
2013-02-19 09:02:00,72.0,64.0,-100.00,ESE,106,3.0,9.0,77,0.00,,,0.00,110.000000,,2013-02-19 14:02:00,
2013-02-19 09:12:00,72.0,64.0,-100.00,ESE,106,3.0,9.0,77,0.00,,,0.00,110.000000,,2013-02-19 14:12:00,
2013-02-19 09:22:00,72.0,64.0,-100.00,ESE,106,3.0,9.0,77,0.00,,,0.00,110.000000,,2013-02-19 14:22:00,
2013-02-19 09:33:00,72.0,64.0,-100.00,ESE,106,3.0,9.0,77,0.00,,,0.00,110.000000,,2013-02-19 14:33:00,
2013-02-19 10:02:00,72.0,66.0,-100.00,ENE,67,4.0,8.0,81,0.00,,,0.00,172.000000,,2013-02-19 15:02:00,
2013-02-19 10:11:00,72.0,66.0,-100.00,ENE,67,4.0,8.0,81,0.00,,,0.00,172.000000,,2013-02-19 15:11:00,
2013-02-19 10:22:00,72.0,66.0,-100.00,ENE,67,4.0,8.0,81,0.00,,,0.00,172.000000,,2013-02-19 15:22:00,
2013-02-19 10:32:00,72.0,66.0,-100.00,ENE,67,4.0,8.0,81,0.00,,,0.00,172.000000,,2013-02-19 15:32:00,
2013-02-19 11:02:00,72.0,68.0,-100.00,East,86,5.0,10.0,88,0.02,,,0.02,267.000000,,2013-02-19 16:02:00,
2013-02-19 11:11:00,72.0,68.0,-100.00,East,86,5.0,10.0,88,0.02,,,0.02,267.000000,,2013-02-19 16:11:00,
2013-02-19 11:22:00,72.0,68.0,-100.00,East,86,5.0,10.0,88,0.02,,,0.02,267.000000,,2013-02-19 16:22:00,
2013-02-19 11:32:00,72.0,68.0,-100.00,East,86,5.0,10.0,88,0.02,,,0.02,267.000000,,2013-02-19 16:32:00,
2013-02-19 12:01:00,74.0,67.0,-100.00,East,94,4.0,11.0,78,0.00,,,0.02,434.000000,,2013-02-19 17:01:00,
2013-02-19 12:11:00,74.0,67.0,-100.00,East,94,4.0,11.0,78,0.00,,,0.02,434.000000,,2013-02-19 17:11:00,
2013-02-19 12:21:00,74.0,67.0,-100.00,East,94,4.0,11.0,78,0.00,,,0.02,434.000000,,2013-02-19 17:21:00,
2013-02-19 12:32:00,74.0,67.0,-100.00,East,94,4.0,11.0,78,0.00,,,0.02,434.000000,,2013-02-19 17:32:00,
2013-02-19 13:02:00,77.0,66.0,-100.00,SE,133,8.0,16.0,68,0.00,,,0.02,558.000000,,2013-02-19 18:02:00,
2013-02-19 13:11:00,77.0,66.0,-100.00,SE,133,8.0,16.0,68,0.00,,,0.02,558.000000,,2013-02-19 18:11:00,
2013-02-19 13:21:00,77.0,66.0,-100.00,SE,133,8.0,16.0,68,0.00,,,0.02,558.000000,,2013-02-19 18:21:00,
2013-02-19 13:32:00,77.0,66.0,-100.00,SE,133,8.0,16.0,68,0.00,,,0.02,558.000000,,2013-02-19 18:32:00,
2013-02-19 14:01:00,76.0,67.0,-100.00,SE,131,4.0,13.0,73,0.00,,,0.02,212.000000,,2013-02-19 19:01:00,
2013-02-19 14:11:00,76.0,67.0,-100.00,SE,131,4.0,13.0,73,0.00,,,0.02,212.000000,,2013-02-19 19:11:00,
2013-02-19 14:21:00,76.0,67.0,-100.00,SE,131,4.0,13.0,73,0.00,,,0.02,212.000000,,2013-02-19 19:21:00,
2013-02-19 14:32:00,76.0,67.0,-100.00,SE,131,4.0,13.0,73,0.00,,,0.02,212.000000,,2013-02-19 19:32:00,
2013-02-19 15:02:00,66.0,64.0,-100.00,NW,311,6.0,16.0,92,1.12,,,1.14,68.000000,,2013-02-19 20:02:00,
2013-02-19 15:12:00,66.0,64.0,-100.00,NW,311,6.0,16.0,92,1.12,,,1.14,68.000000,,2013-02-19 20:12:00,
2013-02-19 15:22:00,66.0,64.0,-100.00,NW,311,6.0,16.0,92,1.12,,,1.14,68.000000,,2013-02-19 20:22:00,
2013-02-19 16:02:00,70.0,66.0,-100.00,NE,39,4.0,7.0,86,0.00,,,1.14,224.000000,,2013-02-19 21:02:00,
2013-02-19 16:11:00,70.0,66.0,-100.00,NE,39,4.0,7.0,86,0.00,,,1.14,224.000000,,2013-02-19 21:11:00,
2013-02-19 16:21:00,70.0,66.0,-100.00,NE,39,4.0,7.0,86,0.00,,,1.14,224.000000,,2013-02-19 21:21:00,
2013-02-19 16:32:00,70.0,66.0,-100.00,NE,39,4.0,7.0,86,0.00,,,1.14,224.000000,,2013-02-19 21:32:00,
2013-02-19 17:02:00,73.0,68.0,-100.00,ENE,74,4.0,7.0,83,0.00,,,1.14,248.000000,,2013-02-19 22:02:00,
2013-02-19 17:11:00,73.0,68.0,-100.00,ENE,74,4.0,7.0,83,0.00,,,1.14,248.000000,,2013-02-19 22:11:00,
2013-02-19 17:22:00,73.0,68.0,-100.00,ENE,74,4.0,7.0,83,0.00,,,1.14,248.000000,,2013-02-19 22:22:00,
2013-02-19 17:32:00,73.0,68.0,-100.00,ENE,74,4.0,7.0,83,0.00,,,1.14,248.000000,,2013-02-19 22:32:00,
2013-02-19 18:01:00,74.0,68.0,-100.00,ENE,74,5.0,8.0,82,0.00,,,1.14,207.000000,,2013-02-19 23:01:00,
2013-02-19 18:11:00,74.0,68.0,-100.00,ENE,74,5.0,8.0,82,0.00,,,1.14,207.000000,,2013-02-19 23:11:00,
2013-02-19 18:21:00,74.0,68.0,-100.00,ENE,74,5.0,8.0,82,0.00,,,1.14,207.000000,,2013-02-19 23:21:00,
2013-02-19 18:32:00,74.0,68.0,-100.00,ENE,74,5.0,8.0,82,0.00,,,1.14,207.000000,,2013-02-19 23:32:00,
2013-02-19 19:02:00,68.0,66.0,-100.00,East,93,3.0,9.0,93,0.00,,,1.14,38.000000,,2013-02-20 00:02:00,
2013-02-19 19:11:00,68.0,66.0,-100.00,East,93,3.0,9.0,93,0.00,,,1.14,38.000000,,2013-02-20 00:11:00,
2013-02-19 19:22:00,68.0,66.0,-100.00,East,93,3.0,9.0,93,0.00,,,1.14,38.000000,,2013-02-20 00:22:00,
2013-02-19 19:32:00,68.0,66.0,-100.00,East,93,3.0,9.0,93,0.00,,,1.14,38.000000,,2013-02-20 00:32:00,
2013-02-19 20:02:00,66.0,65.0,-100.00,ENE,63,2.0,6.0,95,0.00,,,1.14,0.000000,,2013-02-20 01:02:00,
2013-02-19 20:11:00,66.0,65.0,-100.00,ENE,63,2.0,6.0,95,0.00,,,1.14,0.000000,,2013-02-20 01:11:00,
2013-02-19 20:22:00,66.0,65.0,-100.00,ENE,63,2.0,6.0,95,0.00,,,1.14,0.000000,,2013-02-20 01:22:00,
2013-02-19 20:32:00,66.0,65.0,-100.00,ENE,63,2.0,6.0,95,0.00,,,1.14,0.000000,,2013-02-20 01:32:00,
2013-02-19 21:02:00,66.0,65.0,-100.00,NE,43,3.0,5.0,96,0.00,,,1.14,0.000000,,2013-02-20 02:02:00,
2013-02-19 21:11:00,66.0,65.0,-100.00,NE,43,3.0,5.0,96,0.00,,,1.14,0.000000,,2013-02-20 02:11:00,
2013-02-19 21:22:00,66.0,65.0,-100.00,NE,43,3.0,5.0,96,0.00,,,1.14,0.000000,,2013-02-20 02:22:00,
2013-02-19 21:32:00,66.0,65.0,-100.00,NE,43,3.0,5.0,96,0.00,,,1.14,0.000000,,2013-02-20 02:32:00,
2013-02-19 22:02:00,66.0,65.0,-100.00,East,90,3.0,5.0,96,0.00,,,1.14,0.000000,,2013-02-20 03:02:00,
2013-02-19 22:12:00,66.0,65.0,-100.00,East,90,3.0,5.0,96,0.00,,,1.14,0.000000,,2013-02-20 03:12:00,
2013-02-19 22:22:00,66.0,65.0,-100.00,East,90,3.0,5.0,96,0.00,,,1.14,0.000000,,2013-02-20 03:22:00,
2013-02-19 22:32:00,66.0,65.0,-100.00,East,90,3.0,5.0,96,0.00,,,1.14,0.000000,,2013-02-20 03:32:00,
2013-02-19 23:02:00,63.0,62.0,-100.00,ESE,106,1.0,3.0,96,0.00,,,1.14,0.000000,,2013-02-20 04:02:00,
2013-02-19 23:11:00,63.0,62.0,-100.00,ESE,106,1.0,3.0,96,0.00,,,1.14,0.000000,,2013-02-20 04:11:00,
2013-02-19 23:21:00,63.0,62.0,-100.00,ESE,106,1.0,3.0,96,0.00,,,1.14,0.000000,,2013-02-20 04:21:00,
2013-02-19 23:32:00,63.0,62.0,-100.00,ESE,106,1.0,3.0,96,0.00,,,1.14,0.000000,,2013-02-20 04:32:00,